Regional Weather Roundup
Issued by NWS

Home | Current Version | Previous Version | Graphics & Text | Print | Product List | Glossary Off
Versions: 1 2 3 4 5 6 7 8 9 10 11 12 13 14 15 16 17 18 19 20 21 22 23 24 25 26 27 28 29 30 31 32 33 34 35 36 37 38 39 40 41 42 43 44 45 46 47 48 49 50

000
ASUS43 KTOP 251959
RWRKS

WEATHER ROUNDUP FOR KANSAS
NATIONAL WEATHER SERVICE GOODLAND KS
300 PM CDT SAT MAR 25 2017

NOTE:  "FAIR" INDICATES FEW OR NO CLOUDS BELOW 12,000 FEET WITH NO
SIGNIFICANT WEATHER AND/OR OBSTRUCTIONS TO VISIBILITY.

KSZ001>006-013>018-027>032-041>047-252100-
NORTHWEST KANSAS

CITY           SKY/WX    TMP DP  RH WIND       PRES   REMARKS
GOODLAND       SUNNY     56  27  32 CALM      29.96F
HAYS             N/A     47  39  74 N12       29.96F
HILL CITY      PTSUNNY   53  42  66 N8        29.96F
RUSSELL        CLOUDY    45  39  79 N14       29.95F
$$

KSZ061>065-074>080-084>089-252100-
SOUTHWEST KANSAS

CITY           SKY/WX    TMP DP  RH WIND       PRES   REMARKS
DODGE CITY     SUNNY     63  37  38 N13       29.92F
ELKHART          N/A     62  28  27 NE3         N/A
GARDEN CITY    SUNNY     62  30  29 NW13G23   29.93F
GREAT BEND     CLOUDY    47  39  74 N15       29.95F
LIBERAL        SUNNY     64  28  25 NW12      29.97F
$$

KSZ066>073-081>083-090>101-252100-
SOUTHEAST KANSAS

CITY           SKY/WX    TMP DP  RH WIND       PRES   REMARKS
CHANUTE        LGT RAIN  48  44  86 NW13      29.88S
COFFEYVILLE    CLOUDY    50  43  77 W10       29.90F
HUTCHINSON     CLOUDY    44  39  82 NW16      29.94F
MEDICINE LODGE   N/A     52  40  63 N13G18    29.94F
NEWTON         LGT RAIN  42  41  96 NW16      29.93F FOG
PARSONS        CLOUDY    49  43  80 W12       29.90S
WICHITA INTL   CLOUDY    45  40  82 NW17      29.94F
WICHITA JABRA  CLOUDY    43  41  93 NW16      29.92F
WINFIELD       CLOUDY    46  40  79 NW13      29.94F
$$

KSZ007>012-019>026-033>040-048>060-102>105-252100-
NORTHEAST KANSAS

CITY           SKY/WX    TMP DP  RH WIND       PRES   REMARKS
CONCORDIA      CLOUDY    41  40  96 N15       29.95F
EMPORIA        CLOUDY    45  45 100 NW13      29.87S
LAWRENCE       CLOUDY    51  50  96 NW12      29.84F
MANHATTAN      CLOUDY    46  42  86 N8        29.91S
OLATHE IND     CLOUDY    53  51  93 N13       29.82S
OLATHE EXE     CLOUDY    54  53  97 N12       29.81F
SALINA         CLOUDY    44  40  85 NW23      29.95F
TOPEKA BILLARD CLOUDY    49  47  93 N13       29.86F
TOPEKA FORBES  CLOUDY    50  48  93 N12       29.86S
$$



USA.gov is the U.S. government's official web portal to all federal, state and local government web resources and services.